EN

Hourly Weather Otusz

Today, 27 February, Saturday

Time Temperature Precipitation Wind Pressure Humidity
00:00 +3°C° 0 mm 4 mps 763 mmHg 89%
01:00 +1°C° 0 mm 4 mps 763 mmHg 90%
02:00 +1°C° 0 mm 4 mps 763 mmHg 91%
03:00 +1°C° 0 mm 4 mps 763 mmHg 92%
04:00 0°C° 0 mm 5 mps 763 mmHg 93%
05:00 +1°C° 0 mm 5 mps 764 mmHg 92%
06:00 +1°C° 0 mm 5 mps 764 mmHg 92%
07:00 +1°C° 0 mm 5 mps 765 mmHg 91%
08:00 +2°C° 0 mm 5 mps 765 mmHg 89%
09:00 +2°C° 0 mm 5 mps 766 mmHg 86%
10:00 +2°C° 0 mm 5 mps 766 mmHg 84%
11:00 +3°C° 0 mm 5 mps 766 mmHg 80%
12:00 +5°C° 0 mm 5 mps 767 mmHg 77%
13:00 +6°C° 0 mm 5 mps 767 mmHg 74%
14:00 +6°C° 0 mm 5 mps 767 mmHg 72%
15:00 +6°C° 0 mm 5 mps 767 mmHg 71%
16:00 +6°C° 0 mm 4 mps 767 mmHg 69%
17:00 +5°C° 0 mm 4 mps 767 mmHg 73%
18:00 +4°C° 0 mm 4 mps 767 mmHg 78%
19:00 +3°C° 0 mm 3 mps 768 mmHg 82%
20:00 +2°C° 0 mm 3 mps 768 mmHg 83%
21:00 +1°C° 0 mm 3 mps 768 mmHg 85%
22:00 +1°C° 0 mm 3 mps 768 mmHg 86%
23:00 0°C° 0 mm 3 mps 768 mmHg 88%

Tomorrow, 28 February, Sunday

Time Temperature Precipitation Wind Pressure Humidity
00:00 0°C° 0 mm 3 mps 768 mmHg 89%
01:00 0°C° 0 mm 3 mps 769 mmHg 90%
02:00 0°C° 0 mm 3 mps 768 mmHg 91%
03:00 0°C° 0 mm 3 mps 768 mmHg 93%
04:00 0°C° 0 mm 4 mps 767 mmHg 95%
05:00 -1°C° 0 mm 4 mps 767 mmHg 95%
06:00 -1°C° 0 mm 4 mps 767 mmHg 96%
07:00 -1°C° 0 mm 4 mps 767 mmHg 96%
08:00 0°C° 0 mm 4 mps 767 mmHg 94%
09:00 +1°C° 0 mm 4 mps 767 mmHg 91%
10:00 +1°C° 0 mm 5 mps 767 mmHg 88%
11:00 +2°C° 0 mm 5 mps 767 mmHg 85%
12:00 +5°C° 0 mm 5 mps 767 mmHg 82%
13:00 +6°C° 0 mm 5 mps 766 mmHg 78%
14:00 +6°C° 0 mm 5 mps 766 mmHg 78%
15:00 +6°C° 0 mm 5 mps 766 mmHg 77%
16:00 +6°C° 0 mm 4 mps 766 mmHg 77%
17:00 +5°C° 0 mm 4 mps 766 mmHg 81%
18:00 +4°C° 0 mm 3 mps 766 mmHg 86%
19:00 +3°C° 0 mm 3 mps 767 mmHg 91%
20:00 +3°C° 0 mm 2 mps 767 mmHg 91%
21:00 +3°C° 0 mm 2 mps 767 mmHg 92%
22:00 +2°C° 0 mm 2 mps 767 mmHg 93%
23:00 +2°C° 0 mm 2 mps 767 mmHg 93%

Day after tomorrow, 1 March, Monday

Time Temperature Precipitation Wind Pressure Humidity
00:00 +2°C° 0 mm 2 mps 768 mmHg 94%
01:00 +1°C° 0 mm 2 mps 768 mmHg 94%
02:00 +2°C° 0 mm 1 mps 768 mmHg 94%
03:00 +2°C° 0 mm 1 mps 768 mmHg 94%
04:00 +2°C° 0 mm 1 mps 767 mmHg 94%
05:00 +2°C° 0 mm 1 mps 768 mmHg 93%
06:00 +2°C° 0 mm 1 mps 768 mmHg 93%
07:00 +2°C° 0 mm 1 mps 768 mmHg 92%
08:00 +3°C° 0 mm 1 mps 768 mmHg 86%
09:00 +5°C° 0 mm 1 mps 768 mmHg 80%
10:00 +7°C° 0 mm 1 mps 768 mmHg 74%
11:00 +8°C° 0 mm 1 mps 768 mmHg 70%
12:00 +8°C° 0 mm 2 mps 768 mmHg 66%
13:00 +9°C° 0 mm 2 mps 768 mmHg 62%
14:00 +10°C° 0 mm 2 mps 768 mmHg 63%
15:00 +10°C° 0 mm 2 mps 767 mmHg 64%
16:00 +11°C° 0 mm 1 mps 767 mmHg 65%
17:00 +8°C° 0 mm 2 mps 767 mmHg 69%
18:00 +7°C° 0 mm 2 mps 767 mmHg 74%
19:00 +6°C° 0 mm 2 mps 768 mmHg 78%
20:00 +5°C° 0 mm 2 mps 768 mmHg 80%
21:00 +5°C° 0 mm 2 mps 768 mmHg 82%
22:00 +6°C° 0 mm 1 mps 768 mmHg 84%
23:00 +4°C° 0 mm 2 mps 767 mmHg 84%

2 March, Tuesday

Time Temperature Precipitation Wind Pressure Humidity
00:00 +4°C° 0 mm 2 mps 767 mmHg 85%
01:00 +4°C° 0 mm 2 mps 767 mmHg 86%
02:00 +3°C° 0 mm 2 mps 767 mmHg 86%
03:00 +3°C° 0 mm 2 mps 767 mmHg 87%
04:00 +3°C° 0 mm 2 mps 767 mmHg 87%
05:00 +4°C° 0 mm 1 mps 767 mmHg 88%
06:00 +3°C° 0 mm 1 mps 767 mmHg 88%
07:00 +3°C° 0 mm 1 mps 767 mmHg 88%
08:00 +5°C° 0 mm 1 mps 767 mmHg 82%
09:00 +7°C° 0 mm 1 mps 767 mmHg 76%
10:00 +8°C° 0 mm 1 mps 767 mmHg 70%
11:00 +10°C° 0 mm 1 mps 767 mmHg 65%
12:00 +11°C° 0 mm 1 mps 766 mmHg 60%
13:00 +12°C° 0 mm 1 mps 766 mmHg 55%
14:00 +12°C° 0 mm 1 mps 766 mmHg 56%
15:00 +12°C° 0 mm 1 mps 765 mmHg 57%
16:00 +12°C° 0 mm 1 mps 765 mmHg 58%
17:00 +11°C° 0 mm 1 mps 765 mmHg 62%
18:00 +9°C° 0 mm 1 mps 765 mmHg 66%
19:00 +8°C° 0 mm 1 mps 765 mmHg 70%
20:00 +8°C° 0 mm 1 mps 765 mmHg 72%
21:00 +7°C° 0 mm 1 mps 765 mmHg 73%
22:00 +7°C° 0 mm 1 mps 765 mmHg 75%
23:00 +6°C° 0 mm 1 mps 765 mmHg 76%

3 March, Wednesday

Time Temperature Precipitation Wind Pressure Humidity
00:00 +6°C° 0 mm 1 mps 765 mmHg 78%
01:00 +6°C° 0 mm 1 mps 764 mmHg 79%
02:00 +5°C° 0 mm 1 mps 764 mmHg 80%
03:00 +5°C° 0 mm 1 mps 764 mmHg 81%
04:00 +5°C° 0 mm 1 mps 764 mmHg 81%
05:00 +4°C° 0 mm 1 mps 764 mmHg 84%
06:00 +3°C° 0 mm 2 mps 763 mmHg 86%
07:00 +3°C° 0 mm 2 mps 763 mmHg 88%
08:00 +4°C° 0 mm 2 mps 763 mmHg 83%
09:00 +6°C° 0 mm 2 mps 763 mmHg 78%
10:00 +7°C° 0 mm 2 mps 763 mmHg 74%
11:00 +9°C° 0 mm 3 mps 763 mmHg 69%
12:00 +10°C° 0 mm 3 mps 763 mmHg 64%
13:00 +11°C° 0 mm 3 mps 762 mmHg 59%
14:00 +11°C° 0 mm 3 mps 762 mmHg 60%
15:00 +11°C° 0 mm 3 mps 761 mmHg 61%
16:00 +13°C° 0 mm 2 mps 761 mmHg 62%
17:00 +10°C° 0 mm 2 mps 761 mmHg 68%
18:00 +9°C° 0 mm 2 mps 760 mmHg 73%
19:00 +8°C° 0 mm 2 mps 760 mmHg 79%
20:00 +7°C° 0 mm 2 mps 760 mmHg 82%
21:00 +7°C° 0 mm 2 mps 760 mmHg 85%
22:00 +7°C° 0 mm 2 mps 759 mmHg 88%
23:00 +6°C° 0 mm 2 mps 759 mmHg 90%

4 March, Thursday

Time Temperature Precipitation Wind Pressure Humidity
00:00 +6°C° 0 mm 2 mps 759 mmHg 91%
01:00 +6°C° 0 mm 2 mps 758 mmHg 93%
02:00 +5°C° 0 mm 2 mps 758 mmHg 93%
03:00 +5°C° 0 mm 2 mps 757 mmHg 94%
04:00 +5°C° 0 mm 2 mps 757 mmHg 94%
05:00 +5°C° 0 mm 2 mps 757 mmHg 95%
06:00 +3°C° 0 mm 3 mps 756 mmHg 95%
07:00 +3°C° 0 mm 3 mps 756 mmHg 96%
08:00 +4°C° 0 mm 4 mps 756 mmHg 89%
09:00 +6°C° 0 mm 4 mps 756 mmHg 82%
10:00 +7°C° 0 mm 5 mps 755 mmHg 75%
11:00 +8°C° 0 mm 5 mps 755 mmHg 67%
12:00 +9°C° 0 mm 5 mps 755 mmHg 60%
13:00 +10°C° 0 mm 6 mps 754 mmHg 52%
14:00 +10°C° 0 mm 5 mps 754 mmHg 53%
15:00 +9°C° 0 mm 5 mps 753 mmHg 53%
16:00 +10°C° 0 mm 4 mps 753 mmHg 53%
17:00 +8°C° 0 mm 4 mps 753 mmHg 58%
18:00 +6°C° 0 mm 4 mps 753 mmHg 62%
19:00 +5°C° 0 mm 3 mps 752 mmHg 67%
20:00 +5°C° 0 mm 3 mps 752 mmHg 70%
21:00 +4°C° 0 mm 3 mps 753 mmHg 73%
22:00 +4°C° 0 mm 3 mps 753 mmHg 76%
23:00 +3°C° 0 mm 3 mps 753 mmHg 78%
Show more

We Need Your Consent

Meteoprog and our Service Providers may store and access personal data such as cookies, device identifiers or other similar technologies on your device and process such data to personalise content and ads, as well as provide social media features and to analyse the traffic.

  • Store and/or access information on your device

    Cookies, device identifiers or other information can be stored or accessed on your device for the purposes indicated above.

  • Personalised ads and content, ad and content measurement, audience insights, and products development

    Ads and content can be personalised based on a profile. More data can be added to better personalise ads and content. Ad and content performance can be measured. Insights about the audience who saw the ads and content can be derived. Such data can be used to develop or improve user’s experience, systems and software.

By clicking ‘I Agree’ you will allow the use of indicated cookies, device identifiers, web beacons or other similar technologies. Your settings can be changed in the browser on your device.

For certain purposes, legitimate interests may be relied on, rather than consent. You can read more about this in our Privacy and Cookie Policy.